TimeCDT,TemperatureF,Dew PointF,Humidity,Sea Level PressureIn,VisibilityMPH,Wind Direction,Wind SpeedMPH,Gust SpeedMPH,PrecipitationIn,Events,Conditions,WindDirDegrees,DateUTC
12:15 AM,84.2,70.0,62,29.84,10.0,South,9.2,16.1,N/A,,Clear,170,2013-06-22 05:15:00
12:35 AM,84.2,69.8,62,29.84,10.0,South,9.2,16.1,N/A,,Clear,180,2013-06-22 05:35:00
12:55 AM,83.7,69.8,63,29.84,10.0,South,5.8,-,N/A,,Clear,190,2013-06-22 05:55:00
1:15 AM,83.3,69.8,64,29.84,10.0,South,9.2,-,N/A,,Clear,180,2013-06-22 06:15:00
1:35 AM,82.9,69.8,64,29.84,10.0,South,9.2,-,N/A,,Clear,190,2013-06-22 06:35:00
1:55 AM,82.8,70.2,66,29.85,10.0,SSW,8.1,-,N/A,,Clear,200,2013-06-22 06:55:00
2:15 AM,82.4,70.3,67,29.87,10.0,South,4.6,-,N/A,,Clear,190,2013-06-22 07:15:00
2:35 AM,82.4,70.7,68,29.89,10.0,SSW,3.5,-,N/A,,Clear,200,2013-06-22 07:35:00
2:55 AM,82.0,71.1,69,29.91,10.0,West,11.5,18.4,N/A,,Scattered Clouds,270,2013-06-22 07:55:00
3:15 AM,81.3,58.1,45,29.93,7.0,NW,19.6,26.5,N/A,,Mostly Cloudy,310,2013-06-22 08:15:00
3:35 AM,76.5,60.6,58,29.93,7.0,NNW,12.7,19.6,0.03,Rain-Thunderstorm,Light Thunderstorms and Rain,330,2013-06-22 08:35:00
3:55 AM,72.3,62.8,72,29.92,10.0,Calm,Calm,-,0.04,Rain-Thunderstorm,Light Thunderstorms and Rain,0,2013-06-22 08:55:00
4:15 AM,70.5,64.2,80,29.89,10.0,Calm,Calm,-,N/A,Rain,Light Rain,0,2013-06-22 09:15:00
4:35 AM,71.2,63.7,77,29.88,10.0,SE,3.5,-,N/A,,Scattered Clouds,130,2013-06-22 09:35:00
4:55 AM,69.8,64.6,83,29.91,10.0,NW,4.6,-,N/A,,Clear,310,2013-06-22 09:55:00
5:15 AM,71.4,64.8,79,29.94,10.0,NW,4.6,-,N/A,,Mostly Cloudy,310,2013-06-22 10:15:00
5:35 AM,71.6,65.5,81,29.96,10.0,Calm,Calm,-,N/A,,Overcast,0,2013-06-22 10:35:00
5:55 AM,71.6,65.7,81,29.96,10.0,Calm,Calm,-,N/A,,Overcast,0,2013-06-22 10:55:00
6:15 AM,71.6,65.8,82,29.98,10.0,NW,4.6,-,N/A,,Overcast,320,2013-06-22 11:15:00
6:35 AM,72.1,65.5,79,29.97,10.0,NNW,4.6,-,N/A,,Mostly Cloudy,330,2013-06-22 11:35:00
6:55 AM,72.5,65.8,80,29.96,10.0,Calm,Calm,-,N/A,,Overcast,0,2013-06-22 11:55:00
7:15 AM,72.7,65.7,79,29.93,10.0,ESE,3.5,-,N/A,,Mostly Cloudy,120,2013-06-22 12:15:00
7:35 AM,74.5,64.8,72,29.94,10.0,SSW,5.8,-,N/A,,Mostly Cloudy,200,2013-06-22 12:35:00
7:55 AM,75.2,64.4,69,29.94,10.0,Calm,Calm,-,N/A,,Mostly Cloudy,0,2013-06-22 12:55:00
8:15 AM,75.6,63.7,66,29.97,10.0,NW,10.4,-,N/A,,Mostly Cloudy,320,2013-06-22 13:15:00
8:35 AM,74.3,64.4,71,29.99,10.0,NW,15.0,-,N/A,,Overcast,320,2013-06-22 13:35:00
9:35 AM,71.8,63.1,74,30.02,10.0,North,3.5,-,N/A,Rain-Thunderstorm,Light Thunderstorms and Rain,350,2013-06-22 14:35:00
9:55 AM,69.4,64.9,86,29.98,10.0,East,8.1,-,0.09,Rain-Thunderstorm,Light Thunderstorms and Rain,80,2013-06-22 14:55:00
10:15 AM,70.7,64.0,79,29.91,10.0,ESE,11.5,19.6,N/A,,Scattered Clouds,110,2013-06-22 15:15:00
10:35 AM,74.1,64.9,73,29.90,10.0,ESE,15.0,19.6,N/A,,Clear,120,2013-06-22 15:35:00
10:55 AM,77.4,65.7,67,29.91,10.0,SE,18.4,24.2,N/A,,Clear,130,2013-06-22 15:55:00
11:15 AM,79.7,65.8,62,29.92,10.0,ESE,13.8,20.7,N/A,Thunderstorm,Clear,120,2013-06-22 16:15:00
11:35 AM,81.3,65.3,58,29.90,10.0,ESE,16.1,26.5,N/A,,Clear,110,2013-06-22 16:35:00
11:55 AM,83.1,63.5,51,29.89,10.0,ESE,19.6,31.1,N/A,,Clear,120,2013-06-22 16:55:00
12:15 PM,84.6,64.0,50,29.88,10.0,SE,16.1,31.1,N/A,Thunderstorm,Clear,130,2013-06-22 17:15:00
12:35 PM,85.3,64.8,50,29.87,10.0,SE,20.7,34.5,N/A,,Clear,130,2013-06-22 17:35:00
12:55 PM,85.5,67.3,54,29.87,10.0,ESE,17.3,28.8,N/A,,Clear,110,2013-06-22 17:55:00
1:15 PM,85.5,69.3,58,29.86,10.0,ESE,20.7,32.2,N/A,,Clear,120,2013-06-22 18:15:00
1:35 PM,86.9,70.5,58,29.85,10.0,SE,20.7,27.6,N/A,,Clear,140,2013-06-22 18:35:00
1:55 PM,88.0,70.9,57,29.84,10.0,SE,23.0,31.1,N/A,,Scattered Clouds,130,2013-06-22 18:55:00
2:15 PM,88.2,70.5,56,29.84,5.0,SE,18.4,27.6,N/A,,Haze,130,2013-06-22 19:15:00
2:35 PM,87.8,69.1,54,29.84,10.0,SSE,21.9,25.3,N/A,,Scattered Clouds,150,2013-06-22 19:35:00
2:55 PM,87.8,69.3,54,29.83,10.0,SSE,18.4,23.0,N/A,,Clear,150,2013-06-22 19:55:00
3:15 PM,88.0,69.4,54,29.82,10.0,SE,19.6,24.2,N/A,,Clear,130,2013-06-22 20:15:00
3:35 PM,89.8,70.7,53,29.81,10.0,ESE,16.1,26.5,N/A,,Clear,110,2013-06-22 20:35:00
3:55 PM,90.7,68.4,48,29.81,10.0,SE,17.3,25.3,N/A,,Clear,140,2013-06-22 20:55:00
4:15 PM,91.6,66.9,44,29.81,10.0,South,13.8,24.2,N/A,,Scattered Clouds,170,2013-06-22 21:15:00
4:35 PM,91.4,66.9,44,29.81,10.0,South,15.0,27.6,N/A,,Scattered Clouds,170,2013-06-22 21:35:00
4:55 PM,90.9,66.0,44,29.81,10.0,South,15.0,23.0,N/A,,Clear,180,2013-06-22 21:55:00
5:15 PM,90.7,66.2,44,29.81,10.0,South,15.0,25.3,N/A,,Clear,180,2013-06-22 22:15:00
5:35 PM,90.5,66.4,45,29.81,10.0,South,15.0,25.3,N/A,,Clear,180,2013-06-22 22:35:00
5:55 PM,90.5,68.2,48,29.80,10.0,SSE,15.0,19.6,N/A,,Scattered Clouds,160,2013-06-22 22:55:00
6:15 PM,90.3,68.0,48,29.79,10.0,South,11.5,21.9,N/A,,Scattered Clouds,170,2013-06-22 23:15:00
6:35 PM,90.3,65.8,44,29.79,10.0,SSE,15.0,26.5,N/A,,Clear,160,2013-06-22 23:35:00
6:55 PM,89.8,65.7,45,29.79,10.0,SSE,15.0,21.9,N/A,,Clear,160,2013-06-22 23:55:00
7:15 PM,89.2,63.9,43,29.79,10.0,SSE,13.8,23.0,N/A,,Clear,160,2013-06-23 00:15:00
7:35 PM,88.5,64.2,44,29.79,10.0,SE,15.0,-,N/A,,Clear,130,2013-06-23 00:35:00
7:55 PM,87.6,64.9,47,29.79,10.0,SE,11.5,21.9,N/A,,Clear,140,2013-06-23 00:55:00
8:15 PM,86.5,64.8,48,29.79,10.0,SSE,12.7,20.7,N/A,,Clear,150,2013-06-23 01:15:00
8:35 PM,85.5,65.1,50,29.79,10.0,SSE,12.7,-,N/A,,Clear,150,2013-06-23 01:35:00
8:55 PM,84.2,65.3,53,29.79,10.0,SSE,12.7,-,N/A,,Clear,150,2013-06-23 01:55:00
9:15 PM,83.7,65.5,54,29.79,10.0,SE,11.5,-,N/A,,Clear,140,2013-06-23 02:15:00
9:35 PM,82.6,65.8,57,29.79,10.0,SE,10.4,-,N/A,,Clear,140,2013-06-23 02:35:00
9:55 PM,82.6,65.8,57,29.81,10.0,SE,11.5,17.3,N/A,,Clear,140,2013-06-23 02:55:00
10:15 PM,82.6,66.2,58,29.83,10.0,SE,12.7,18.4,N/A,,Clear,140,2013-06-23 03:15:00
10:35 PM,81.9,66.4,59,29.83,10.0,SE,10.4,-,N/A,,Clear,140,2013-06-23 03:35:00
10:55 PM,81.7,67.1,61,29.83,10.0,SSE,11.5,19.6,N/A,,Clear,150,2013-06-23 03:55:00
11:15 PM,81.5,67.6,63,29.83,10.0,SE,13.8,-,N/A,,Clear,140,2013-06-23 04:15:00
11:35 PM,81.0,68.0,65,29.82,10.0,SSE,13.8,-,N/A,,Clear,150,2013-06-23 04:35:00
11:55 PM,81.1,67.6,63,29.81,10.0,SSE,13.8,18.4,N/A,,Clear,150,2013-06-23 04:55:00